�������l�o���
Date,Time,MP-1(��Sv/h),MP-2(��Sv/h),MP-3(��Sv/h),MP-4(��Sv/h),MP-5(��Sv/h),MP-6(��Sv/h),MP-7(��Sv/h),MP-8(��Sv/h),����,����(m/s),���J
2018/11/17,00:00,0.781,1.185,0.826,1.468,1.069,0.456,0.804,0.761,��쐼,3.5,��
2018/11/17,00:10,0.782,1.186,0.825,1.469,1.066,0.457,0.804,0.759,�쐼,2.8,��
2018/11/17,00:20,0.782,1.184,0.825,1.470,1.064,0.457,0.804,0.759,��쐼,2.9,��
2018/11/17,00:30,0.783,1.185,0.825,1.469,1.068,0.458,0.804,0.761,�쐼,2.3,��
2018/11/17,00:40,0.782,1.187,0.826,1.470,1.068,0.457,0.803,0.760,���쐼,2.0,��
2018/11/17,00:50,0.782,1.184,0.825,1.470,1.068,0.455,0.805,0.760,���쐼,2.0,��
2018/11/17,01:00,0.782,1.186,0.829,1.467,1.066,0.456,0.803,0.759,�쐼,1.7,��
2018/11/17,01:10,0.781,1.182,0.826,1.467,1.069,0.456,0.803,0.761,���쐼,2.0,��
2018/11/17,01:20,0.781,1.185,0.826,1.468,1.068,0.457,0.802,0.762,���쐼,1.5,��
2018/11/17,01:30,0.784,1.184,0.825,1.468,1.067,0.457,0.803,0.760,��,1.2,��
2018/11/17,01:40,0.783,1.184,0.826,1.468,1.069,0.456,0.803,0.760,��,1.5,��
2018/11/17,01:50,0.782,1.186,0.823,1.469,1.066,0.456,0.804,0.761,��쐼,1.2,��
2018/11/17,02:00,0.782,1.185,0.825,1.470,1.065,0.457,0.804,0.760,��쐼,1.4,��
2018/11/17,02:10,0.781,1.185,0.827,1.471,1.066,0.457,0.802,0.760,��쓌,1.5,��
2018/11/17,02:20,0.781,1.184,0.825,1.467,1.067,0.456,0.804,0.761,��쓌,2.5,��
2018/11/17,02:30,0.782,1.186,0.827,1.469,1.066,0.459,0.804,0.761,��쓌,3.8,��
2018/11/17,02:40,0.782,1.185,0.826,1.469,1.069,0.459,0.802,0.760,��,3.3,��
2018/11/17,02:50,0.782,1.187,0.826,1.468,1.067,0.457,0.804,0.761,��쓌,2.0,��
2018/11/17,03:00,0.782,1.185,0.827,1.466,1.068,0.456,0.803,0.761,��쓌,3.1,��
2018/11/17,03:10,0.782,1.188,0.825,1.469,1.066,0.457,0.804,0.760,��,3.8,��
2018/11/17,03:20,0.781,1.187,0.826,1.469,1.067,0.458,0.804,0.761,��,4.2,��
2018/11/17,03:30,0.783,1.184,0.827,1.469,1.065,0.456,0.803,0.761,��,4.6,��
2018/11/17,03:40,0.783,1.185,0.826,1.469,1.067,0.458,0.806,0.761,��쐼,4.4,��
2018/11/17,03:50,0.780,1.188,0.825,1.465,1.067,0.456,0.804,0.760,��,3.5,��
2018/11/17,04:00,0.782,1.185,0.827,1.469,1.066,0.456,0.804,0.762,��쐼,2.5,��
2018/11/17,04:10,0.783,1.182,0.824,1.466,1.066,0.456,0.805,0.762,��,3.5,��
2018/11/17,04:20,0.781,1.185,0.826,1.467,1.066,0.457,0.803,0.761,��쓌,2.9,��
2018/11/17,04:30,0.781,1.186,0.828,1.470,1.067,0.458,0.805,0.759,�쓌,2.2,��
2018/11/17,04:40,0.782,1.187,0.825,1.469,1.066,0.457,0.803,0.762,���쓌,1.5,��
2018/11/17,04:50,0.780,1.184,0.826,1.468,1.067,0.459,0.804,0.761,���k��,1.7,��
2018/11/17,05:00,0.783,1.185,0.828,1.470,1.068,0.456,0.803,0.760,���쓌,1.7,��
2018/11/17,05:10,0.784,1.183,0.825,1.469,1.067,0.458,0.802,0.762,��,1.1,��
2018/11/17,05:20,0.782,1.184,0.826,1.470,1.068,0.456,0.804,0.760,���쓌,0.6,��
2018/11/17,05:30,0.782,1.185,0.827,1.470,1.068,0.457,0.804,0.761,�쓌,1.4,��
2018/11/17,05:40,0.783,1.185,0.826,1.471,1.065,0.459,0.803,0.762,���k��,0.8,��
2018/11/17,05:50,0.781,1.188,0.826,1.469,1.066,0.457,0.803,0.758,���k��,0.9,��
2018/11/17,06:00,0.782,1.185,0.825,1.469,1.067,0.458,0.804,0.760,��,1.2,��
2018/11/17,06:10,0.782,1.185,0.827,1.470,1.068,0.458,0.804,0.762,��,1.7,��
2018/11/17,06:20,0.782,1.187,0.826,1.468,1.069,0.457,0.805,0.760,���k��,0.6,��
2018/11/17,06:30,0.782,1.185,0.824,1.468,1.069,0.459,0.805,0.760,�k�k��,0.9,��
2018/11/17,06:40,0.784,1.188,0.827,1.469,1.067,0.458,0.804,0.761,-,CALM,��
2018/11/17,06:50,0.784,1.183,0.826,1.470,1.067,0.457,0.805,0.760,���쓌,1.5,��
2018/11/17,07:00,0.782,1.186,0.825,1.468,1.068,0.457,0.804,0.762,��,1.5,��
2018/11/17,07:10,0.785,1.182,0.824,1.470,1.066,0.458,0.803,0.760,�k�k��,0.9,��
2018/11/17,07:20,0.784,1.187,0.828,1.470,1.068,0.457,0.803,0.760,���k��,1.5,��
2018/11/17,07:30,0.781,1.183,0.825,1.469,1.067,0.457,0.802,0.761,���k��,1.2,��
2018/11/17,07:40,0.783,1.183,0.828,1.471,1.066,0.456,0.806,0.760,���k��,2.0,��
2018/11/17,07:50,0.784,1.188,0.825,1.468,1.068,0.457,0.802,0.762,���k��,4.8,��
2018/11/17,08:00,0.783,1.185,0.825,1.469,1.067,0.459,0.804,0.762,���k��,6.0,��
2018/11/17,08:10,0.785,1.186,0.825,1.471,1.069,0.458,0.804,0.762,���k��,5.5,��
2018/11/17,08:20,0.782,1.185,0.825,1.469,1.066,0.458,0.804,0.762,��,7.2,��
2018/11/17,08:30,0.781,1.184,0.827,1.468,1.069,0.457,0.803,0.761,���k��,7.1,��
2018/11/17,08:40,0.783,1.185,0.826,1.470,1.071,0.458,0.805,0.763,�k��,5.8,��
2018/11/17,08:50,0.784,1.186,0.827,1.468,1.067,0.457,0.805,0.762,�k�k��,4.9,��
2018/11/17,09:00,0.783,1.187,0.826,1.470,1.071,0.458,0.803,0.761,�k�k��,6.6,��
2018/11/17,09:10,0.786,1.182,0.826,1.470,1.070,0.458,0.803,0.764,�k,5.6,��
2018/11/17,09:20,0.783,1.181,0.828,1.471,1.068,0.458,0.803,0.763,�k�k��,5.0,��
2018/11/17,09:30,0.785,1.179,0.826,1.471,1.070,0.458,0.804,0.761,�k,6.9,��
2018/11/17,09:40,0.782,1.182,0.827,1.471,1.071,0.457,0.803,0.763,�k,8.8,��
2018/11/17,09:50,0.784,1.180,0.827,1.473,1.070,0.454,0.806,0.760,�k,10.3,��
2018/11/17,10:00,0.782,1.179,0.827,1.472,1.066,0.457,0.805,0.760,�k,11.6,��
2018/11/17,10:10,0.782,1.180,0.827,1.471,1.067,0.456,0.803,0.761,�k,11.3,��
2018/11/17,10:20,0.783,1.182,0.826,1.471,1.068,0.456,0.804,0.761,�k,7.4,��
2018/11/17,10:30,0.782,1.183,0.828,1.474,1.068,0.455,0.802,0.759,�k,7.3,��
2018/11/17,10:40,0.782,1.180,0.827,1.472,1.071,0.454,0.803,0.759,�k,6.5,��
2018/11/17,10:50,0.782,1.181,0.828,1.473,1.068,0.453,0.803,0.760,�k�k��,7.1,��
2018/11/17,11:00,0.782,1.178,0.829,1.472,1.069,0.454,0.805,0.759,�k�k��,7.8,��
2018/11/17,11:10,0.781,1.181,0.829,1.472,1.071,0.454,0.803,0.758,�k�k��,7.2,��
2018/11/17,11:20,0.782,1.182,0.828,1.471,1.071,0.455,0.805,0.760,�k�k��,8.4,��
2018/11/17,11:30,0.781,1.181,0.828,1.473,1.069,0.455,0.804,0.760,�k�k��,7.3,��
2018/11/17,11:40,0.783,1.184,0.827,1.469,1.069,0.455,0.805,0.760,�k�k��,6.5,��
2018/11/17,11:50,0.782,1.181,0.828,1.472,1.069,0.456,0.805,0.758,�k�k��,5.7,��
2018/11/17,12:00,0.782,1.182,0.828,1.474,1.068,0.456,0.804,0.760,�k�k��,5.7,��
2018/11/17,12:10,0.785,1.182,0.828,1.473,1.069,0.455,0.804,0.760,�k�k��,5.0,��
2018/11/17,12:20,0.784,1.185,0.829,1.472,1.068,0.458,0.805,0.760,�k�k��,5.0,��
2018/11/17,12:30,0.783,1.181,0.828,1.471,1.069,0.458,0.805,0.759,�k�k��,4.3,��
2018/11/17,12:40,0.784,1.182,0.827,1.473,1.071,0.457,0.805,0.761,�k�k��,4.0,��
2018/11/17,12:50,0.784,1.182,0.830,1.476,1.068,0.456,0.804,0.760,�k�k��,3.4,��
2018/11/17,13:00,0.785,1.181,0.830,1.473,1.067,0.458,0.804,0.761,�k�k��,4.5,��
2018/11/17,13:10,0.785,1.183,0.828,1.474,1.070,0.459,0.803,0.760,�k�k��,4.3,��
2018/11/17,13:20,0.784,1.183,0.826,1.473,1.068,0.458,0.805,0.760,�k��,4.0,��
2018/11/17,13:30,0.785,1.182,0.828,1.472,1.070,0.457,0.803,0.760,�k��,3.8,��
2018/11/17,13:40,0.784,1.182,0.828,1.475,1.069,0.459,0.803,0.758,�k��,3.8,��
2018/11/17,13:50,0.782,1.181,0.828,1.473,1.069,0.457,0.804,0.759,�k��,3.2,��
2018/11/17,14:00,0.783,1.179,0.829,1.475,1.070,0.458,0.805,0.758,���k��,3.2,��
2018/11/17,14:10,0.783,1.181,0.828,1.473,1.069,0.459,0.804,0.761,�k��,3.2,��
2018/11/17,14:20,0.782,1.180,0.826,1.473,1.069,0.458,0.805,0.760,���k��,3.3,��
2018/11/17,14:30,0.785,1.180,0.828,1.472,1.070,0.458,0.806,0.760,�k�k��,4.0,��
2018/11/17,14:40,0.785,1.180,0.826,1.475,1.071,0.459,0.804,0.758,�k,5.0,��
2018/11/17,14:50,0.783,1.181,0.828,1.474,1.070,0.459,0.806,0.760,�k,6.1,��
2018/11/17,15:00,0.785,1.184,0.827,1.473,1.070,0.458,0.804,0.760,�k,6.2,��
2018/11/17,15:10,0.782,1.183,0.825,1.476,1.070,0.457,0.806,0.760,�k�k��,6.9,��
2018/11/17,15:20,0.783,1.185,0.826,1.476,1.070,0.460,0.804,0.761,�k�k��,6.6,��
2018/11/17,15:30,0.784,1.187,0.829,1.475,1.070,0.458,0.806,0.763,�k�k��,8.1,��
2018/11/17,15:40,0.782,1.190,0.827,1.474,1.069,0.458,0.806,0.761,�k�k��,8.7,��
2018/11/17,15:50,0.783,1.185,0.828,1.473,1.071,0.458,0.804,0.761,�k,5.8,��
2018/11/17,16:00,0.785,1.185,0.827,1.475,1.069,0.458,0.803,0.764,�k,6.6,��
2018/11/17,16:10,0.785,1.189,0.829,1.474,1.069,0.460,0.805,0.761,�k�k��,8.6,��
2018/11/17,16:20,0.785,1.189,0.829,1.477,1.070,0.459,0.805,0.761,�k�k��,8.5,��
2018/11/17,16:30,0.787,1.189,0.830,1.473,1.071,0.459,0.806,0.763,�k�k��,6.3,��
2018/11/17,16:40,0.784,1.187,0.830,1.474,1.069,0.458,0.806,0.762,�k�k��,6.6,��
2018/11/17,16:50,0.786,1.188,0.828,1.475,1.071,0.459,0.805,0.762,�k�k��,6.8,��
2018/11/17,17:00,0.785,1.191,0.828,1.473,1.072,0.457,0.806,0.762,�k�k��,7.0,��
2018/11/17,17:10,0.784,1.190,0.829,1.474,1.070,0.458,0.806,0.761,�k�k��,8.3,��
2018/11/17,17:20,0.785,1.186,0.830,1.476,1.073,0.457,0.804,0.762,�k�k��,8.1,��
2018/11/17,17:30,0.786,1.189,0.831,1.474,1.073,0.456,0.805,0.762,�k�k��,7.0,��
2018/11/17,17:40,0.785,1.191,0.831,1.476,1.072,0.458,0.805,0.761,�k�k��,6.3,��
2018/11/17,17:50,0.784,1.189,0.827,1.475,1.074,0.457,0.805,0.761,�k�k��,6.1,��
2018/11/17,18:00,0.785,1.188,0.832,1.474,1.073,0.456,0.804,0.763,�k��,6.4,��
2018/11/17,18:10,0.784,1.190,0.831,1.476,1.070,0.456,0.805,0.762,�k��,5.3,��
2018/11/17,18:20,0.786,1.186,0.827,1.475,1.073,0.458,0.807,0.760,�k�k��,5.6,��
2018/11/17,18:30,0.784,1.187,0.830,1.473,1.073,0.457,0.807,0.760,�k�k��,5.1,��
2018/11/17,18:40,0.784,1.189,0.829,1.475,1.071,0.457,0.806,0.761,�k�k��,5.6,��
2018/11/17,18:50,0.784,1.189,0.829,1.478,1.072,0.456,0.805,0.761,�k�k��,5.3,��
2018/11/17,19:00,0.784,1.187,0.828,1.476,1.071,0.458,0.807,0.760,�k�k��,6.0,��
2018/11/17,19:10,0.786,1.187,0.828,1.475,1.070,0.456,0.805,0.761,�k�k��,5.5,��
2018/11/17,19:20,0.784,1.185,0.826,1.476,1.070,0.456,0.805,0.760,�k�k��,5.4,��
2018/11/17,19:30,0.784,1.186,0.830,1.475,1.070,0.456,0.806,0.760,�k,6.2,��
2018/11/17,19:40,0.785,1.188,0.827,1.474,1.073,0.457,0.805,0.761,�k,7.6,��
2018/11/17,19:50,0.786,1.188,0.829,1.477,1.073,0.456,0.805,0.761,�k�k��,8.5,��
2018/11/17,20:00,0.784,1.186,0.830,1.476,1.073,0.458,0.805,0.761,�k�k��,7.6,��
2018/11/17,20:10,0.784,1.189,0.828,1.475,1.072,0.457,0.804,0.761,�k�k��,7.0,��
2018/11/17,20:20,0.784,1.190,0.829,1.475,1.069,0.456,0.805,0.760,�k,6.2,��
2018/11/17,20:30,0.784,1.187,0.828,1.477,1.072,0.455,0.804,0.761,�k,7.0,��
2018/11/17,20:40,0.783,1.189,0.830,1.478,1.073,0.456,0.805,0.760,�k�k��,7.0,��
2018/11/17,20:50,0.783,1.189,0.831,1.475,1.071,0.455,0.804,0.762,�k�k��,6.2,��
2018/11/17,21:00,0.784,1.190,0.827,1.476,1.070,0.456,0.804,0.761,�k,6.7,��
2018/11/17,21:10,0.785,1.189,0.829,1.476,1.071,0.458,0.805,0.761,�k�k��,8.5,��
2018/11/17,21:20,0.784,1.187,0.828,1.476,1.072,0.456,0.804,0.761,�k,7.0,��
2018/11/17,21:30,0.783,1.191,0.827,1.476,1.071,0.455,0.805,0.760,�k,8.2,��
2018/11/17,21:40,0.786,1.186,0.827,1.476,1.071,0.456,0.804,0.760,�k�k��,7.8,��
2018/11/17,21:50,0.783,1.188,0.827,1.475,1.071,0.455,0.805,0.760,�k�k��,6.2,��
2018/11/17,22:00,0.784,1.188,0.830,1.475,1.073,0.455,0.803,0.761,�k�k��,6.2,��
2018/11/17,22:10,0.782,1.187,0.829,1.475,1.072,0.456,0.806,0.759,�k�k��,7.4,��
2018/11/17,22:20,0.784,1.189,0.829,1.475,1.072,0.456,0.805,0.759,�k,7.7,��
2018/11/17,22:30,0.784,1.188,0.827,1.477,1.071,0.456,0.803,0.761,�k�k��,6.9,��
2018/11/17,22:40,0.783,1.189,0.831,1.476,1.069,0.455,0.805,0.760,�k�k��,6.8,��
2018/11/17,22:50,0.784,1.185,0.830,1.476,1.072,0.457,0.804,0.760,�k�k��,7.1,��
2018/11/17,23:00,0.783,1.185,0.829,1.474,1.071,0.455,0.805,0.759,�k�k��,7.3,��
2018/11/17,23:10,0.784,1.187,0.828,1.476,1.072,0.455,0.804,0.760,�k�k��,7.5,��
2018/11/17,23:20,0.784,1.187,0.829,1.476,1.073,0.454,0.807,0.761,�k�k��,7.5,��
2018/11/17,23:30,0.783,1.188,0.828,1.475,1.071,0.457,0.809,0.760,�k�k��,7.0,��
2018/11/17,23:40,0.785,1.188,0.829,1.475,1.071,0.455,0.804,0.761,�k�k��,6.4,��
2018/11/17,23:50,0.783,1.187,0.827,1.474,1.073,0.455,0.805,0.759,�k�k��,5.5,��
